TITAN 3C TRANSTAGE DEB, 2789

Orbit data source: Space-Track

TITAN 3C TRANSTAGE DEB, 2789 is space debris in LEO originally from a launch on Fri, 15 Oct 1965 UTC launched from the Air Force Eastern Test Range (AFETR). Debris objects in space refer to the collection of defunct objects orbiting the Earth. Examples of debris include non-operational satellites, rocket bodies, and fragments generated from explosions, collisions, or faulty payload assembly.

Loading next visibility...
Identifier
2789, 1965-082KR
Orbit
LEO
Last TLE update
21 hours ago
Origin
Manufacturer
Unknown
Mission
Spacecraft
Bus & Motor
Unknown
Mass
Unknown
Launch date (UTC)
1965-10-15 (60 years ago)
Launch vehicle
Unknown
Launch site
Air Force Eastern Test Range (AFETR)
Object type
Payload
Rocket body
Debris
Shape & HBR
Unknown
Radar Cross Section
Small (<0.1 m²)

Expand to show TLE details & history

TLE from 21 hours ago
0 TITAN 3C TRANSTAGE DEB
1 02789U 65082KR  25169.27428677  .00042080  00000-0  17360-2 0  9996
2 02789  32.2694 257.3081 0033383  88.4446 272.0042 15.22400259 25839
Epoch: 2025-06-18T06:34Z
TLE epoch observation values (Epoch: 2025-06-18T06:34:58.376Z)
Latitude
-0.00007°
Longitude
-108.19391°
Altitude
496.504 km
Speed
7.619 km/s
True Right ascension
17h 09m 13s
True Declination
0° 00' 00"
Sunlit
Object was in full shadow at epoch
Visualization orbit readout
Latitude
7.12856°
Longitude
54.72105°
Altitude
488.24 km
Speed
7.628 km/s
Apparent Right ascension
03h 25m 24s
Apparent Declination
-15° 38' 20"
Sunlit
Object is in daylight
Visualization observer readout
Local Sidereal Time
14:35:53
Azimuth
332.505° NNW
Elevation
-63.43°
Doppler factor
1
Orbital elements
Apogee altitude
525.244 km
Perigee altitude
479.306 km
Semi-major axis
6,880.412 km
Eccentricity
0.00334
Inclination
32.2694°
RAAN
257.3081°
Arg. of periapsis
88.4446°
True anomaly
Unknown
Mean anomaly
272.0042°
Eccentric anomaly
Unknown
Mean motion
3.80296 °/min
Orbital period
94.66 mins
BSTAR
0.001736
Loading maneuver chart data...
Loading SW <> Apogee altitude chart data...

TITAN 3C TRANSTAGE DEB Visibility forecast

Observer location: undefined°, undefined°

Span
Click to sort rows by Start time (UTC) header in descending order
Start Az.
Max El. time (UTC)
Max El. Az.
Max El.
End time (UTC)
End Az.
4 mins2025-06-19 11:14:50.637Z211.761° SW2025-06-19 11:16:50.637Z164.046° S21.549°2025-06-19 11:18:50.637Z126.888° SE
|